Zurück zum Katalog

COSMOS 1691 DEB

AktivPO
NORAD 17168·DEBRIS·🇷🇺 Russia

Gestartet Oct 9, 1985 von Plesetsk Cosmodrome

Loading…

Nächste Überflüge (nächste 24 Stunden)

TLE

AktuellSource: Space-Track

Epoche: Sep 14, 2026, 07:10 UTC

1 17168U 85094S   26257.29913209  .00000651  00000-0  17052-2 0  9995
2 17168  82.5497 101.1276 0050431 257.6802 155.2068 13.14767512915134

Verfolge COSMOS 1691 DEB in Echtzeit mit AllMySat

Download on the App Store